Time,TemperatureF,DewpointF,PressureIn,WindDirection,WindDirectionDegrees,WindSpeedMPH,WindSpeedGustMPH,Humidity,HourlyPrecipIn,Conditions,Clouds,dailyrainin,SoftwareType,DateUTC
2013-02-20 00:11:00,25.8,17.0,30.14,North,5,2.0,3.0,70,0.00,,,0.00,weatherlink.com 1.10,2013-02-20 05:11:00,
2013-02-20 00:26:00,25.5,17.0,30.14,SW,226,1.0,6.0,71,0.00,,,0.00,weatherlink.com 1.10,2013-02-20 05:26:00,
2013-02-20 00:41:00,25.4,16.0,30.15,NE,55,3.0,7.0,67,0.00,,,0.00,weatherlink.com 1.10,2013-02-20 05:41:00,
2013-02-20 00:56:00,25.2,15.0,30.14,SSW,192,2.0,7.0,66,0.00,,,0.00,weatherlink.com 1.10,2013-02-20 05:56:00,
2013-02-20 01:11:00,25.2,15.0,30.15,NNE,28,5.0,7.0,66,0.00,,,0.00,weatherlink.com 1.10,2013-02-20 06:11:00,
2013-02-20 01:26:00,25.1,14.0,30.15,SSW,204,1.0,9.0,64,0.00,,,0.00,weatherlink.com 1.10,2013-02-20 06:26:00,
2013-02-20 01:41:00,25.0,14.0,30.15,West,262,3.0,7.0,64,0.00,,,0.00,weatherlink.com 1.10,2013-02-20 06:41:00,
2013-02-20 01:56:00,25.0,15.0,30.16,NNW,330,2.0,6.0,66,0.00,,,0.00,weatherlink.com 1.10,2013-02-20 06:56:00,
2013-02-20 02:11:00,24.8,15.0,30.16,SE,135,0.0,5.0,66,0.00,,,0.00,weatherlink.com 1.10,2013-02-20 07:11:00,
2013-02-20 02:26:00,24.8,15.0,30.17,WSW,257,1.0,4.0,65,0.00,,,0.00,weatherlink.com 1.10,2013-02-20 07:26:00,
2013-02-20 02:41:00,24.6,14.0,30.17,SW,232,1.0,5.0,64,0.00,,,0.00,weatherlink.com 1.10,2013-02-20 07:41:00,
2013-02-20 02:56:00,24.5,14.0,30.16,NE,47,1.0,5.0,65,0.00,,,0.00,weatherlink.com 1.10,2013-02-20 07:56:00,
2013-02-20 03:11:00,24.1,14.0,30.17,NNW,346,2.0,6.0,65,0.00,,,0.00,weatherlink.com 1.10,2013-02-20 08:11:00,
2013-02-20 03:26:00,23.9,14.0,30.18,SSW,200,3.0,6.0,65,0.00,,,0.00,weatherlink.com 1.10,2013-02-20 08:26:00,
2013-02-20 03:41:00,23.9,14.0,30.18,SW,222,2.0,6.0,65,0.00,,,0.00,weatherlink.com 1.10,2013-02-20 08:41:00,
2013-02-20 03:56:00,23.6,13.0,30.18,NNE,15,2.0,8.0,65,0.00,,,0.00,weatherlink.com 1.10,2013-02-20 08:56:00,
2013-02-20 04:11:00,23.4,14.0,30.19,NNE,15,0.0,5.0,66,0.00,,,0.00,weatherlink.com 1.10,2013-02-20 09:11:00,
2013-02-20 04:26:00,23.2,13.0,30.20,South,172,1.0,6.0,65,0.00,,,0.00,weatherlink.com 1.10,2013-02-20 09:26:00,
2013-02-20 04:41:00,23.2,14.0,30.20,NE,56,2.0,4.0,67,0.00,,,0.00,weatherlink.com 1.10,2013-02-20 09:41:00,
2013-02-20 04:56:00,23.3,14.0,30.20,West,267,0.0,3.0,67,0.00,,,0.00,weatherlink.com 1.10,2013-02-20 09:56:00,
2013-02-20 05:11:00,23.3,14.0,30.21,West,269,0.0,4.0,67,0.00,,,0.00,weatherlink.com 1.10,2013-02-20 10:11:00,
2013-02-20 05:26:00,23.1,13.0,30.20,West,263,1.0,4.0,66,0.00,,,0.00,weatherlink.com 1.10,2013-02-20 10:26:00,
2013-02-20 05:41:00,23.1,14.0,30.21,ENE,58,2.0,4.0,67,0.00,,,0.00,weatherlink.com 1.10,2013-02-20 10:41:00,
2013-02-20 05:56:00,23.0,14.0,30.21,SSW,207,1.0,6.0,67,0.00,,,0.00,weatherlink.com 1.10,2013-02-20 10:56:00,
2013-02-20 06:11:00,23.1,14.0,30.22,SW,221,0.0,6.0,67,0.00,,,0.00,weatherlink.com 1.10,2013-02-20 11:11:00,
2013-02-20 06:27:00,23.1,14.0,30.22,SW,236,0.0,4.0,68,0.00,,,0.00,weatherlink.com 1.10,2013-02-20 11:27:00,
2013-02-20 06:42:00,23.0,13.0,30.23,NNW,343,0.0,5.0,66,0.00,,,0.00,weatherlink.com 1.10,2013-02-20 11:42:00,
2013-02-20 06:57:00,22.7,13.0,30.23,ENE,69,1.0,5.0,66,0.00,,,0.00,weatherlink.com 1.10,2013-02-20 11:57:00,
2013-02-20 07:12:00,22.5,13.0,30.23,North,9,1.0,3.0,68,0.00,,,0.00,weatherlink.com 1.10,2013-02-20 12:12:00,
2013-02-20 07:27:00,22.3,14.0,30.23,WNW,296,1.0,4.0,69,0.00,,,0.00,weatherlink.com 1.10,2013-02-20 12:27:00,
2013-02-20 07:42:00,22.0,13.0,30.23,North,5,1.0,4.0,69,0.00,,,0.00,weatherlink.com 1.10,2013-02-20 12:42:00,
2013-02-20 07:57:00,21.8,13.0,30.24,WSW,257,0.0,3.0,68,0.00,,,0.00,weatherlink.com 1.10,2013-02-20 12:57:00,
2013-02-20 08:12:00,21.4,12.0,30.24,NNE,13,2.0,4.0,68,0.00,,,0.00,weatherlink.com 1.10,2013-02-20 13:12:00,
2013-02-20 08:27:00,21.4,12.0,30.25,East,92,2.0,3.0,68,0.00,,,0.00,weatherlink.com 1.10,2013-02-20 13:27:00,
2013-02-20 08:42:00,21.5,12.0,30.26,West,263,0.0,4.0,68,0.00,,,0.00,weatherlink.com 1.10,2013-02-20 13:42:00,
2013-02-20 08:57:00,22.1,13.0,30.27,SW,231,4.0,4.0,67,0.00,,,0.00,weatherlink.com 1.10,2013-02-20 13:57:00,
2013-02-20 09:12:00,22.2,13.0,30.28,NE,38,2.0,7.0,67,0.00,,,0.00,weatherlink.com 1.10,2013-02-20 14:12:00,
2013-02-20 09:27:00,22.5,13.0,30.28,SSW,206,2.0,5.0,67,0.00,,,0.00,weatherlink.com 1.10,2013-02-20 14:27:00,
2013-02-20 09:42:00,22.4,13.0,30.28,NNE,33,2.0,4.0,66,0.00,,,0.00,weatherlink.com 1.10,2013-02-20 14:42:00,
2013-02-20 09:57:00,22.5,13.0,30.28,WSW,242,1.0,3.0,68,0.00,,,0.00,weatherlink.com 1.10,2013-02-20 14:57:00,
2013-02-20 10:12:00,22.7,14.0,30.28,NW,322,2.0,4.0,68,0.00,,,0.00,weatherlink.com 1.10,2013-02-20 15:12:00,
2013-02-20 10:27:00,22.9,14.0,30.29,SW,225,0.0,3.0,69,0.00,,,0.00,weatherlink.com 1.10,2013-02-20 15:27:00,
2013-02-20 10:42:00,22.8,14.0,30.29,NNE,17,4.0,5.0,68,0.00,,,0.00,weatherlink.com 1.10,2013-02-20 15:42:00,
2013-02-20 10:57:00,22.9,14.0,30.30,SSW,211,1.0,5.0,69,0.00,,,0.00,weatherlink.com 1.10,2013-02-20 15:57:00,
2013-02-20 11:12:00,23.3,14.0,30.31,North,360,2.0,3.0,67,0.00,,,0.00,weatherlink.com 1.10,2013-02-20 16:12:00,
2013-02-20 11:27:00,23.2,13.0,30.31,SW,217,0.0,7.0,66,0.00,,,0.00,weatherlink.com 1.10,2013-02-20 16:27:00,
2013-02-20 11:42:00,23.9,13.0,30.31,NNE,17,1.0,4.0,63,0.00,,,0.00,weatherlink.com 1.10,2013-02-20 16:42:00,
2013-02-20 11:57:00,24.6,13.0,30.32,NNW,344,0.0,5.0,62,0.00,,,0.00,weatherlink.com 1.10,2013-02-20 16:57:00,
2013-02-20 12:12:00,25.2,14.0,30.31,East,82,0.0,5.0,62,0.00,,,0.00,weatherlink.com 1.10,2013-02-20 17:12:00,
2013-02-20 12:27:00,26.2,14.0,30.31,WSW,248,2.0,4.0,59,0.00,,,0.00,weatherlink.com 1.10,2013-02-20 17:27:00,
2013-02-20 12:42:00,25.3,14.0,30.29,NE,34,0.0,6.0,62,0.00,,,0.00,weatherlink.com 1.10,2013-02-20 17:42:00,
2013-02-20 12:57:00,27.2,14.0,30.29,NNE,22,3.0,5.0,59,0.00,,,0.00,weatherlink.com 1.10,2013-02-20 17:57:00,
2013-02-20 13:12:00,26.7,13.0,30.30,SW,219,0.0,5.0,56,0.00,,,0.00,weatherlink.com 1.10,2013-02-20 18:12:00,
2013-02-20 13:27:00,27.1,14.0,30.29,SSW,202,1.0,8.0,57,0.00,,,0.00,weatherlink.com 1.10,2013-02-20 18:27:00,
2013-02-20 13:42:00,28.4,14.0,30.29,SW,217,0.0,5.0,56,0.00,,,0.00,weatherlink.com 1.10,2013-02-20 18:42:00,
2013-02-20 13:57:00,29.2,14.0,30.28,North,355,2.0,6.0,53,0.00,,,0.00,weatherlink.com 1.10,2013-02-20 18:57:00,
2013-02-20 14:12:00,30.4,16.0,30.29,NE,42,0.0,6.0,56,0.00,,,0.00,weatherlink.com 1.10,2013-02-20 19:12:00,
2013-02-20 14:27:00,30.8,15.0,30.28,North,355,1.0,4.0,52,0.00,,,0.00,weatherlink.com 1.10,2013-02-20 19:27:00,
2013-02-20 14:42:00,30.2,13.0,30.28,SSW,203,2.0,6.0,49,0.00,,,0.00,weatherlink.com 1.10,2013-02-20 19:42:00,
2013-02-20 15:12:00,31.2,15.0,30.29,WSW,246,1.0,4.0,51,0.00,,,0.00,weatherlink.com 1.10,2013-02-20 20:12:00,
2013-02-20 15:27:00,31.0,15.0,30.29,North,5,0.0,6.0,51,0.00,,,0.00,weatherlink.com 1.10,2013-02-20 20:27:00,
2013-02-20 15:42:00,31.4,14.0,30.29,SSW,202,1.0,4.0,49,0.00,,,0.00,weatherlink.com 1.10,2013-02-20 20:42:00,
2013-02-20 15:57:00,30.6,15.0,30.29,NNE,24,1.0,5.0,52,0.00,,,0.00,weatherlink.com 1.10,2013-02-20 20:57:00,
2013-02-20 16:12:00,30.2,14.0,30.29,NNE,24,4.0,5.0,51,0.00,,,0.00,weatherlink.com 1.10,2013-02-20 21:12:00,
2013-02-20 16:27:00,30.3,15.0,30.30,North,5,4.0,6.0,53,0.00,,,0.00,weatherlink.com 1.10,2013-02-20 21:27:00,
2013-02-20 16:42:00,30.4,15.0,30.30,North,355,0.0,4.0,52,0.00,,,0.00,weatherlink.com 1.10,2013-02-20 21:42:00,
2013-02-20 16:58:00,29.5,14.0,30.29,NE,36,1.0,5.0,53,0.00,,,0.00,weatherlink.com 1.10,2013-02-20 21:58:00,
2013-02-20 17:13:00,29.2,13.0,30.29,WSW,253,0.0,2.0,52,0.00,,,0.00,weatherlink.com 1.10,2013-02-20 22:13:00,
2013-02-20 17:28:00,28.6,14.0,30.29,NNE,19,1.0,4.0,55,0.00,,,0.00,weatherlink.com 1.10,2013-02-20 22:28:00,
2013-02-20 17:43:00,28.4,14.0,30.29,NNE,20,1.0,3.0,56,0.00,,,0.00,weatherlink.com 1.10,2013-02-20 22:43:00,
2013-02-20 17:58:00,28.0,14.0,30.29,NNE,30,1.0,3.0,56,0.00,,,0.00,weatherlink.com 1.10,2013-02-20 22:58:00,
2013-02-20 18:13:00,27.4,14.0,30.29,NNE,24,0.0,3.0,58,0.00,,,0.00,weatherlink.com 1.10,2013-02-20 23:13:00,
2013-02-20 18:28:00,27.2,14.0,30.30,NNE,12,0.0,1.0,59,0.00,,,0.00,weatherlink.com 1.10,2013-02-20 23:28:00,
2013-02-20 18:43:00,26.9,15.0,30.32,North,355,0.0,3.0,60,0.00,,,0.00,weatherlink.com 1.10,2013-02-20 23:43:00,
2013-02-20 18:58:00,26.5,14.0,30.32,NNE,13,0.0,4.0,60,0.00,,,0.00,weatherlink.com 1.10,2013-02-20 23:58:00,
2013-02-20 19:13:00,26.4,15.0,30.32,North,11,1.0,5.0,62,0.00,,,0.00,weatherlink.com 1.10,2013-02-21 00:13:00,
2013-02-20 19:28:00,26.2,15.0,30.32,North,5,1.0,3.0,62,0.00,,,0.00,weatherlink.com 1.10,2013-02-21 00:28:00,
2013-02-20 19:43:00,26.0,14.0,30.33,North,9,0.0,3.0,62,0.00,,,0.00,weatherlink.com 1.10,2013-02-21 00:43:00,
2013-02-20 19:58:00,25.9,15.0,30.33,North,9,0.0,1.0,63,0.00,,,0.00,weatherlink.com 1.10,2013-02-21 00:58:00,
2013-02-20 20:13:00,25.8,15.0,30.32,WNW,292,1.0,3.0,63,0.00,,,0.00,weatherlink.com 1.10,2013-02-21 01:13:00,
2013-02-20 20:28:00,25.7,15.0,30.32,NNE,12,0.0,3.0,64,0.00,,,0.00,weatherlink.com 1.10,2013-02-21 01:28:00,
2013-02-20 20:43:00,25.6,15.0,30.31,NNE,12,0.0,2.0,64,0.00,,,0.00,weatherlink.com 1.10,2013-02-21 01:43:00,
2013-02-20 20:58:00,25.4,15.0,30.32,NW,313,0.0,1.0,65,0.00,,,0.00,weatherlink.com 1.10,2013-02-21 01:58:00,
2013-02-20 21:13:00,25.3,15.0,30.32,North,360,0.0,1.0,65,0.00,,,0.00,weatherlink.com 1.10,2013-02-21 02:13:00,
2013-02-20 21:28:00,25.3,15.0,30.32,NNE,23,1.0,3.0,66,0.00,,,0.00,weatherlink.com 1.10,2013-02-21 02:28:00,
2013-02-20 21:43:00,25.1,16.0,30.32,North,11,0.0,2.0,68,0.00,,,0.00,weatherlink.com 1.10,2013-02-21 02:43:00,
2013-02-20 21:58:00,24.9,16.0,30.32,NNW,347,0.0,2.0,69,0.00,,,0.00,weatherlink.com 1.10,2013-02-21 02:58:00,
2013-02-20 22:13:00,24.6,16.0,30.33,NNE,15,0.0,3.0,70,0.00,,,0.00,weatherlink.com 1.10,2013-02-21 03:13:00,
2013-02-20 22:28:00,24.2,16.0,30.33,NNE,15,0.0,1.0,72,0.00,,,0.00,weatherlink.com 1.10,2013-02-21 03:28:00,
2013-02-20 22:43:00,23.6,16.0,30.32,NNE,15,0.0,1.0,74,0.00,,,0.00,weatherlink.com 1.10,2013-02-21 03:43:00,
2013-02-20 22:58:00,23.1,17.0,30.32,NNE,15,1.0,2.0,76,0.00,,,0.00,weatherlink.com 1.10,2013-02-21 03:58:00,
2013-02-20 23:13:00,22.9,17.0,30.32,NNE,15,0.0,2.0,77,0.00,,,0.00,weatherlink.com 1.10,2013-02-21 04:13:00,
2013-02-20 23:28:00,22.5,17.0,30.32,North,5,0.0,1.0,78,0.00,,,0.00,weatherlink.com 1.10,2013-02-21 04:28:00,
2013-02-20 23:43:00,22.1,16.0,30.33,North,5,0.0,2.0,77,0.00,,,0.00,weatherlink.com 1.10,2013-02-21 04:43:00,
2013-02-20 23:58:00,21.8,16.0,30.32,North,5,0.0,1.0,77,0.00,,,0.00,weatherlink.com 1.10,2013-02-21 04:58:00,